OMD211 LFBO-EFHK

Flight info

Callsign OMD211
Flight time 2h 57m
Altitude 18000
Route MEN G53 NINUN/N0491F390 DCT BOMBI Z728 MASEK DCT BEBLA DCT ELNAT/N0483F380 P605 SAS/N0488F390 P717 AMALI DCT BUMIL DCT UNGAV DCT NINTA DCT ADAXA M405 ORVIX DCT DIVAM
Aircraft A388/J-SADE2E3FGHIJ3J4J5M1RWXY/LB1D1

Departure

Time 2026-05-06 12:04
Airport Toulouse-Blagnac Airport (LFBO)

Arrival

Time 2026-05-06 15:01
Airport Helsinki Vantaa Airport (EFHK)
Time Latitude Longitude Altitude Speed Heading
2026-05-06 11:48 43.61446 1.36382 499 ft 0 kts 272°
2026-05-06 11:56 43.61446 1.36398 499 ft 4 kts 272°
2026-05-06 11:56 43.61444 1.36435 499 ft 4 kts 272°
2026-05-06 11:56 43.61443 1.36472 499 ft 4 kts 272°
2026-05-06 11:56 43.61442 1.36510 499 ft 4 kts 272°
2026-05-06 11:57 43.61441 1.36543 499 ft 4 kts 279°
2026-05-06 11:57 43.61434 1.36564 499 ft 4 kts 321°
2026-05-06 11:57 43.61419 1.36570 499 ft 4 kts
2026-05-06 11:57 43.61394 1.36564 499 ft 4 kts 15°
2026-05-06 11:58 43.61382 1.36559 499 ft 1 kts 17°
2026-05-06 11:59 43.61395 1.36565 499 ft 9 kts 17°
2026-05-06 12:00 43.61512 1.36615 499 ft 20 kts 17°
2026-05-06 12:00 43.61605 1.36666 499 ft 13 kts 39°
2026-05-06 12:00 43.61667 1.36766 499 ft 15 kts 53°
2026-05-06 12:00 43.61735 1.36893 499 ft 18 kts 53°
2026-05-06 12:01 43.61802 1.37012 499 ft 0 kts 52°
2026-05-06 12:02 43.61830 1.37062 499 ft 16 kts 53°
2026-05-06 12:02 43.61911 1.37165 499 ft 15 kts
2026-05-06 12:02 43.62009 1.37096 499 ft 13 kts 320°
2026-05-06 12:02 43.62033 1.37068 499 ft 0 kts 321°
2026-05-06 12:03 43.62034 1.37068 499 ft 0 kts 321°
2026-05-06 12:03 43.62195 1.36900 499 ft 70 kts 322°
2026-05-06 12:03 43.62767 1.36300 499 ft 131 kts 322°
2026-05-06 12:03 43.63603 1.35477 587 ft 156 kts 324°
2026-05-06 12:04 43.64461 1.34629 1100 ft 154 kts 322°
2026-05-06 12:04 43.65340 1.33754 1595 ft 157 kts 318°
2026-05-06 12:04 43.66216 1.32839 2051 ft 162 kts 316°
2026-05-06 12:04 43.67166 1.31859 2273 ft 181 kts 318°
2026-05-06 12:05 43.68235 1.30791 2464 ft 197 kts 319°
2026-05-06 12:05 43.69529 1.29926 2561 ft 225 kts 343°
2026-05-06 12:05 43.71206 1.30101 2918 ft 263 kts 15°
2026-05-06 12:05 43.72774 1.31532 3598 ft 280 kts 44°
2026-05-06 12:06 43.73851 1.33790 4466 ft 283 kts 61°
2026-05-06 12:06 43.74696 1.36292 5154 ft 291 kts 64°
2026-05-06 12:06 43.75556 1.38841 6138 ft 291 kts 63°
2026-05-06 12:06 43.76475 1.41359 7027 ft 296 kts 61°
2026-05-06 12:07 43.77440 1.43844 7890 ft 298 kts 59°
2026-05-06 12:07 43.78453 1.46358 8768 ft 302 kts 59°
2026-05-06 12:07 43.79497 1.48915 9600 ft 306 kts 59°
2026-05-06 12:07 43.80555 1.51496 10332 ft 314 kts 59°
2026-05-06 12:08 43.81657 1.54224 10632 ft 334 kts 62°
2026-05-06 12:08 43.82506 1.57329 10874 ft 354 kts 72°
2026-05-06 12:08 43.83229 1.60627 11515 ft 360 kts 73°
2026-05-06 12:08 43.83944 1.63973 12194 ft 365 kts 73°
2026-05-06 12:09 43.84670 1.67351 12948 ft 368 kts 73°
2026-05-06 12:09 43.85399 1.70721 13653 ft 372 kts 73°
2026-05-06 12:09 43.86144 1.74165 14314 ft 375 kts 73°
2026-05-06 12:09 43.86896 1.77643 14968 ft 378 kts 73°
2026-05-06 12:10 43.87655 1.81154 15580 ft 382 kts 73°
2026-05-06 12:10 43.88420 1.84706 16230 ft 385 kts 73°
2026-05-06 12:10 43.89191 1.88291 16837 ft 389 kts 73°
2026-05-06 12:10 43.89966 1.91899 17475 ft 392 kts 73°
2026-05-06 12:11 43.90742 1.95521 18179 ft 393 kts 73°
2026-05-06 12:11 43.91559 1.99169 18671 ft 397 kts 69°
2026-05-06 12:11 43.92747 2.02635 19231 ft 399 kts 58°
2026-05-06 12:11 43.94330 2.05745 19713 ft 400 kts 48°
2026-05-06 12:12 43.96164 2.08670 20212 ft 404 kts 47°
2026-05-06 12:12 43.98002 2.11651 20723 ft 407 kts 47°
2026-05-06 12:12 43.99844 2.14669 21216 ft 410 kts 47°
2026-05-06 12:12 44.01695 2.17709 21736 ft 413 kts 47°
2026-05-06 12:13 44.03561 2.20772 22219 ft 417 kts 47°
2026-05-06 12:13 44.05444 2.23863 22685 ft 421 kts 47°
2026-05-06 12:13 44.07345 2.26982 23150 ft 424 kts 47°
2026-05-06 12:13 44.09239 2.30095 23619 ft 428 kts 46°
2026-05-06 12:14 44.11152 2.33279 24017 ft 431 kts 47°
2026-05-06 12:14 44.13097 2.36487 24377 ft 435 kts 47°
2026-05-06 12:14 44.15055 2.39700 24770 ft 439 kts 47°
2026-05-06 12:14 44.17037 2.42957 25163 ft 443 kts 47°
2026-05-06 12:15 44.19035 2.46250 25577 ft 447 kts 47°
2026-05-06 12:15 44.21046 2.49575 26072 ft 449 kts 47°
2026-05-06 12:15 44.23067 2.52922 26517 ft 454 kts 47°
2026-05-06 12:15 44.25109 2.56307 26963 ft 458 kts 48°
2026-05-06 12:16 44.27170 2.59729 27387 ft 463 kts 48°
2026-05-06 12:16 44.29248 2.63182 27835 ft 467 kts 48°
2026-05-06 12:16 44.31356 2.66690 28306 ft 472 kts 48°
2026-05-06 12:16 44.33456 2.70191 28675 ft 479 kts 48°
2026-05-06 12:17 44.35604 2.73775 29142 ft 482 kts 48°
2026-05-06 12:17 44.37774 2.77399 29598 ft 487 kts 49°
2026-05-06 12:17 44.39960 2.81057 30117 ft 490 kts 49°
2026-05-06 12:17 44.42143 2.84713 30633 ft 491 kts 49°
2026-05-06 12:18 44.44342 2.88401 31033 ft 495 kts 49°
2026-05-06 12:18 44.46558 2.92123 31459 ft 498 kts 49°
2026-05-06 12:18 44.48760 2.95824 31885 ft 502 kts 49°
2026-05-06 12:18 44.51002 2.99600 32332 ft 505 kts 49°
2026-05-06 12:19 44.53255 3.03398 32718 ft 508 kts 49°
2026-05-06 12:19 44.55529 3.07239 33066 ft 513 kts 50°
2026-05-06 12:19 44.57816 3.11127 33404 ft 518 kts 50°
2026-05-06 12:19 44.60074 3.14978 33998 ft 517 kts 52°
2026-05-06 12:20 44.62039 3.19218 34278 ft 521 kts 61°
2026-05-06 12:20 44.63822 3.23676 34627 ft 524 kts 61°
2026-05-06 12:20 44.65618 3.28138 35104 ft 524 kts 61°
2026-05-06 12:20 44.67414 3.32602 35561 ft 524 kts 61°
2026-05-06 12:21 44.69201 3.37057 36049 ft 524 kts 61°
2026-05-06 12:21 44.70386 3.40016 36365 ft 524 kts 61°
2026-05-06 12:21 44.72170 3.44485 36829 ft 524 kts 61°
2026-05-06 12:21 44.73956 3.48964 37298 ft 524 kts 60°
2026-05-06 12:22 44.75992 3.53205 37736 ft 524 kts 50°
2026-05-06 12:22 44.78472 3.56954 38164 ft 523 kts 41°
2026-05-06 12:22 44.81311 3.60157 38625 ft 521 kts 32°
2026-05-06 12:22 44.84341 3.62838 38990 ft 520 kts 30°
2026-05-06 12:23 44.87420 3.65546 39340 ft 520 kts 31°
2026-05-06 12:23 44.90479 3.68258 39701 ft 519 kts 31°
2026-05-06 12:23 44.93534 3.70968 40054 ft 519 kts 31°
2026-05-06 12:23 44.96589 3.73675 40442 ft 517 kts 31°
2026-05-06 12:24 44.99641 3.76377 40791 ft 516 kts 31°
2026-05-06 12:24 45.02691 3.79078 41101 ft 517 kts 31°
2026-05-06 12:24 45.05713 3.81757 41336 ft 518 kts 31°
2026-05-06 12:24 45.08779 3.84478 41518 ft 521 kts 31°
2026-05-06 12:25 45.11868 3.87225 41725 ft 524 kts 31°
2026-05-06 12:25 45.14952 3.89973 42000 ft 525 kts 31°
2026-05-06 12:25 45.18050 3.92738 42209 ft 527 kts 31°
2026-05-06 12:25 45.21157 3.95514 42470 ft 530 kts 31°
2026-05-06 12:26 45.24248 3.98279 42726 ft 531 kts 31°
2026-05-06 12:26 45.27425 4.01124 42911 ft 534 kts 32°
2026-05-06 12:26 45.33691 4.06749 42915 ft 532 kts 32°
2026-05-06 12:27 45.39931 4.12366 42916 ft 532 kts 32°
2026-05-06 12:27 45.46209 4.18031 42911 ft 533 kts 32°
2026-05-06 12:28 45.52478 4.23703 42910 ft 532 kts 32°
2026-05-06 12:28 45.58725 4.29371 42906 ft 531 kts 32°
2026-05-06 12:29 45.64932 4.35017 42913 ft 532 kts 32°
2026-05-06 12:29 45.71196 4.40730 42917 ft 533 kts 32°
2026-05-06 12:30 45.77446 4.46447 42916 ft 533 kts 32°
2026-05-06 12:30 45.83691 4.52173 42915 ft 533 kts 32°
2026-05-06 12:31 45.89894 4.57877 42924 ft 533 kts 32°
2026-05-06 12:31 45.96150 4.63645 42923 ft 533 kts 32°
2026-05-06 12:32 46.02400 4.69423 42921 ft 533 kts 32°
2026-05-06 12:32 46.08640 4.75208 42922 ft 533 kts 32°
2026-05-06 12:33 46.14881 4.81009 42915 ft 534 kts 32°
2026-05-06 12:33 46.21088 4.86795 42915 ft 534 kts 32°
2026-05-06 12:34 46.27328 4.92627 42914 ft 533 kts 32°
2026-05-06 12:34 46.33565 4.98472 42906 ft 533 kts 32°
2026-05-06 12:35 46.39792 5.04326 42908 ft 534 kts 32°
2026-05-06 12:35 46.46020 5.10195 42910 ft 533 kts 32°
2026-05-06 12:36 46.52197 5.16032 42900 ft 533 kts 32°
2026-05-06 12:36 46.58424 5.21934 42903 ft 532 kts 32°
2026-05-06 12:37 46.64620 5.27821 42879 ft 532 kts 32°
2026-05-06 12:37 46.70822 5.33731 42883 ft 532 kts 33°
2026-05-06 12:38 46.76989 5.39624 42891 ft 532 kts 33°
2026-05-06 12:38 46.83197 5.45573 42891 ft 534 kts 33°
2026-05-06 12:39 46.89410 5.51544 42891 ft 533 kts 33°
2026-05-06 12:39 46.95565 5.57476 42886 ft 533 kts 33°
2026-05-06 12:40 47.01763 5.63465 42885 ft 532 kts 33°
2026-05-06 12:40 47.07944 5.69455 42883 ft 532 kts 33°
2026-05-06 12:41 47.14125 5.75462 42882 ft 532 kts 33°
2026-05-06 12:41 47.20289 5.81469 42874 ft 532 kts 33°
2026-05-06 12:42 47.26427 5.87469 42882 ft 533 kts 33°
2026-05-06 12:42 47.32607 5.93526 42872 ft 533 kts 33°
2026-05-06 12:43 47.38776 5.99590 42881 ft 533 kts 33°
2026-05-06 12:43 47.44948 6.05674 42890 ft 534 kts 33°
2026-05-06 12:44 47.51124 6.11779 42866 ft 532 kts 33°
2026-05-06 12:44 47.57280 6.17882 42865 ft 533 kts 33°
2026-05-06 12:45 47.63403 6.23971 42871 ft 533 kts 33°
2026-05-06 12:46 47.72630 6.33178 42849 ft 533 kts 33°
2026-05-06 12:46 47.78795 6.39353 42856 ft 533 kts 33°
2026-05-06 12:47 47.84949 6.45533 42870 ft 532 kts 33°
2026-05-06 12:47 47.91077 6.51706 42863 ft 531 kts 33°
2026-05-06 12:48 47.97203 6.57895 42857 ft 530 kts 33°
2026-05-06 12:48 48.03274 6.64047 42853 ft 530 kts 33°
2026-05-06 12:49 48.09376 6.70248 42855 ft 529 kts 33°
2026-05-06 12:49 48.15486 6.76474 42856 ft 532 kts 34°
2026-05-06 12:50 48.21604 6.82728 42849 ft 532 kts 34°
2026-05-06 12:50 48.27676 6.88953 42835 ft 529 kts 34°
2026-05-06 12:51 48.33761 6.95209 42826 ft 529 kts 34°
2026-05-06 12:51 48.39839 7.01477 42813 ft 529 kts 34°
2026-05-06 12:52 48.45913 7.07759 42806 ft 528 kts 34°
2026-05-06 12:52 48.51964 7.14036 42800 ft 528 kts 34°
2026-05-06 12:53 48.57974 7.20288 42798 ft 528 kts 34°
2026-05-06 12:53 48.64021 7.26598 42797 ft 528 kts 34°
2026-05-06 12:54 48.70069 7.32927 42797 ft 528 kts 34°
2026-05-06 12:54 48.76111 7.39269 42795 ft 527 kts 34°
2026-05-06 12:55 48.80158 7.43527 42794 ft 526 kts 34°
2026-05-06 12:55 48.86278 7.49984 42799 ft 527 kts 34°
2026-05-06 12:56 48.92304 7.56360 42790 ft 527 kts 34°
2026-05-06 12:56 48.98332 7.62756 42761 ft 528 kts 34°
2026-05-06 12:57 49.04346 7.69159 42787 ft 528 kts 34°
2026-05-06 12:57 49.10365 7.75585 42793 ft 528 kts 34°
2026-05-06 12:58 49.16390 7.82037 42798 ft 528 kts 34°
2026-05-06 12:58 49.22401 7.88494 42797 ft 528 kts 34°
2026-05-06 12:59 49.28414 7.94973 42804 ft 528 kts 35°
2026-05-06 12:59 49.34386 8.01426 42798 ft 528 kts 35°
2026-05-06 13:00 49.40380 8.07924 42789 ft 527 kts 35°
2026-05-06 13:00 49.46366 8.14433 42785 ft 527 kts 35°
2026-05-06 13:01 49.52338 8.20946 42773 ft 526 kts 35°
2026-05-06 13:01 49.58313 8.27482 42775 ft 526 kts 35°
2026-05-06 13:02 49.64276 8.34025 42767 ft 526 kts 35°
2026-05-06 13:02 49.70244 8.40594 42777 ft 526 kts 35°
2026-05-06 13:03 49.76178 8.47145 42763 ft 526 kts 35°
2026-05-06 13:03 49.82134 8.53742 42754 ft 527 kts 35°
2026-05-06 13:04 49.88096 8.60359 42765 ft 527 kts 36°
2026-05-06 13:04 49.94064 8.66998 42765 ft 528 kts 36°
2026-05-06 13:05 50.00002 8.73623 42769 ft 528 kts 36°
2026-05-06 13:05 50.05914 8.80445 42769 ft 528 kts 43°
2026-05-06 13:06 50.10482 8.86706 42768 ft 528 kts 34°
2026-05-06 13:06 50.16590 8.93143 42762 ft 528 kts 34°
2026-05-06 13:07 50.22576 8.99834 42758 ft 529 kts 36°
2026-05-06 13:07 50.28468 9.06735 42755 ft 530 kts 37°
2026-05-06 13:08 50.34345 9.13689 42750 ft 530 kts 37°
2026-05-06 13:08 50.40225 9.20663 42775 ft 529 kts 37°
2026-05-06 13:09 50.46050 9.27586 42777 ft 528 kts 37°
2026-05-06 13:09 50.51901 9.34563 42760 ft 527 kts 37°
2026-05-06 13:10 50.57741 9.41550 42732 ft 526 kts 37°
2026-05-06 13:10 50.63557 9.48530 42732 ft 526 kts 37°
2026-05-06 13:11 50.69375 9.55534 42727 ft 525 kts 37°
2026-05-06 13:11 50.75540 9.61597 42725 ft 523 kts 20°
2026-05-06 13:11 50.78972 9.63240 42721 ft 521 kts
2026-05-06 13:12 50.82564 9.63857 42720 ft 518 kts 358°
2026-05-06 13:12 50.89769 9.63734 42723 ft 518 kts 360°
2026-05-06 13:13 50.97004 9.64540 42729 ft 521 kts
2026-05-06 13:13 51.04164 9.65879 42741 ft 522 kts
2026-05-06 13:14 51.11378 9.67309 42743 ft 522 kts
2026-05-06 13:14 51.18607 9.68732 42762 ft 523 kts
2026-05-06 13:15 51.25843 9.70040 42763 ft 522 kts
2026-05-06 13:15 51.33038 9.71156 42773 ft 522 kts
2026-05-06 13:16 51.40281 9.72310 42773 ft 522 kts
2026-05-06 13:16 51.47509 9.73486 42770 ft 522 kts
2026-05-06 13:17 51.54731 9.74818 42772 ft 522 kts
2026-05-06 13:17 51.61962 9.76218 42776 ft 522 kts
2026-05-06 13:18 51.69188 9.77598 42779 ft 522 kts
2026-05-06 13:18 51.76410 9.78973 42779 ft 522 kts
2026-05-06 13:19 51.83583 9.80341 42787 ft 523 kts
2026-05-06 13:19 51.90816 9.81729 42785 ft 523 kts
2026-05-06 13:20 51.98058 9.83134 42793 ft 523 kts
2026-05-06 13:20 52.05299 9.84590 42792 ft 524 kts
2026-05-06 13:20 52.08833 9.86139 42805 ft 526 kts 20°
2026-05-06 13:21 52.12132 9.88715 42812 ft 527 kts 31°
2026-05-06 13:21 52.17866 9.96043 42810 ft 528 kts 41°
2026-05-06 13:22 52.23455 10.03852 42813 ft 529 kts 40°
2026-05-06 13:22 52.29099 10.11558 42826 ft 529 kts 39°
2026-05-06 13:23 52.34740 10.19216 42826 ft 530 kts 39°
2026-05-06 13:23 52.36730 10.21924 42824 ft 530 kts 39°
2026-05-06 13:24 52.38138 10.23843 42826 ft 530 kts 39°
2026-05-06 13:24 52.40977 10.27717 42825 ft 530 kts 40°
2026-05-06 13:25 52.46329 10.35044 42811 ft 530 kts 40°
2026-05-06 13:26 52.51950 10.42764 42811 ft 529 kts 40°
2026-05-06 13:26 52.57598 10.50548 42813 ft 530 kts 40°
2026-05-06 13:27 52.63237 10.58348 42813 ft 529 kts 40°
2026-05-06 13:27 52.68875 10.66172 42820 ft 529 kts 40°
2026-05-06 13:28 52.74498 10.74005 42821 ft 529 kts 40°
2026-05-06 13:28 52.80124 10.81868 42830 ft 529 kts 40°
2026-05-06 13:29 52.85705 10.89696 42830 ft 529 kts 40°
2026-05-06 13:29 52.91316 10.97593 42828 ft 529 kts 40°
2026-05-06 13:30 52.96914 11.05500 42825 ft 528 kts 40°
2026-05-06 13:30 53.02504 11.13424 42823 ft 528 kts 40°
2026-05-06 13:31 53.08087 11.21365 42827 ft 528 kts 40°
2026-05-06 13:31 53.13626 11.29272 42817 ft 528 kts 40°
2026-05-06 13:32 53.19203 11.37260 42822 ft 528 kts 40°
2026-05-06 13:32 53.24778 11.45275 42825 ft 529 kts 40°
2026-05-06 13:33 53.30367 11.53340 42828 ft 530 kts 40°
2026-05-06 13:33 53.35906 11.61361 42832 ft 530 kts 40°
2026-05-06 13:34 53.41482 11.69463 42835 ft 530 kts 40°
2026-05-06 13:34 53.47049 11.77581 42834 ft 530 kts 40°
2026-05-06 13:35 53.52610 11.85719 42829 ft 530 kts 41°
2026-05-06 13:35 53.58170 11.93886 42845 ft 530 kts 41°
2026-05-06 13:36 53.63698 12.02035 42839 ft 531 kts 41°
2026-05-06 13:36 53.69245 12.10242 42846 ft 530 kts 41°
2026-05-06 13:37 53.74789 12.18474 42846 ft 530 kts 41°
2026-05-06 13:37 53.80325 12.26725 42855 ft 530 kts 41°
2026-05-06 13:38 53.85857 12.35000 42858 ft 530 kts 41°
2026-05-06 13:38 53.91383 12.43295 42856 ft 530 kts 41°
2026-05-06 13:39 53.96871 12.51566 42854 ft 531 kts 41°
2026-05-06 13:39 54.02391 12.59915 42858 ft 530 kts 41°
2026-05-06 13:40 54.07894 12.68267 42858 ft 530 kts 41°
2026-05-06 13:40 54.13396 12.76651 42863 ft 530 kts 41°
2026-05-06 13:41 54.18898 12.85065 42865 ft 530 kts 41°
2026-05-06 13:41 54.24359 12.93448 42867 ft 530 kts 41°
2026-05-06 13:42 54.29838 13.01890 42870 ft 530 kts 41°
2026-05-06 13:42 54.35321 13.10369 42878 ft 531 kts 41°
2026-05-06 13:43 54.40804 13.18881 42883 ft 531 kts 41°
2026-05-06 13:43 54.46282 13.27417 42887 ft 531 kts 41°
2026-05-06 13:44 54.51753 13.35974 42886 ft 531 kts 41°
2026-05-06 13:44 54.57224 13.44564 42896 ft 531 kts 41°
2026-05-06 13:45 54.62654 13.53122 42894 ft 531 kts 42°
2026-05-06 13:45 54.70824 13.66059 42904 ft 531 kts 42°
2026-05-06 13:46 54.76265 13.74716 42904 ft 531 kts 42°
2026-05-06 13:46 54.81705 13.83404 42906 ft 531 kts 42°
2026-05-06 13:47 54.87137 13.92100 42906 ft 531 kts 42°
2026-05-06 13:47 54.92365 14.01149 42920 ft 531 kts 53°
2026-05-06 13:48 54.96175 14.12119 42914 ft 530 kts 62°
2026-05-06 13:48 54.99691 14.23353 42909 ft 531 kts 61°
2026-05-06 13:49 55.03333 14.34551 42917 ft 531 kts 60°
2026-05-06 13:49 55.07004 14.45725 42914 ft 530 kts 60°
2026-05-06 13:50 55.10666 14.56917 42912 ft 530 kts 60°
2026-05-06 13:50 55.14290 14.68046 42912 ft 530 kts 61°
2026-05-06 13:51 55.17929 14.79279 42912 ft 530 kts 61°
2026-05-06 13:51 55.21557 14.90527 42917 ft 530 kts 61°
2026-05-06 13:52 55.24568 14.99906 42919 ft 530 kts 61°
2026-05-06 13:52 55.28177 15.11191 42922 ft 530 kts 61°
2026-05-06 13:53 55.31776 15.22497 42914 ft 530 kts 61°
2026-05-06 13:53 55.35342 15.33753 42931 ft 530 kts 61°
2026-05-06 13:54 55.38921 15.45105 42921 ft 531 kts 62°
2026-05-06 13:54 55.42494 15.56490 42922 ft 531 kts 62°
2026-05-06 13:55 55.46054 15.67888 42926 ft 531 kts 62°
2026-05-06 13:55 55.49603 15.79305 42924 ft 531 kts 62°
2026-05-06 13:56 55.53131 15.90712 42925 ft 531 kts 62°
2026-05-06 13:56 55.56663 16.02185 42925 ft 531 kts 62°
2026-05-06 13:57 55.60170 16.13632 42921 ft 531 kts 62°
2026-05-06 13:57 55.63678 16.25139 42921 ft 531 kts 62°
2026-05-06 13:58 55.67178 16.36673 42918 ft 530 kts 62°
2026-05-06 13:58 55.70659 16.48202 42916 ft 530 kts 62°
2026-05-06 13:59 55.74111 16.59693 42918 ft 531 kts 62°
2026-05-06 13:59 55.77574 16.71279 42916 ft 531 kts 63°
2026-05-06 14:00 55.81024 16.82877 42920 ft 531 kts 63°
2026-05-06 14:00 55.84469 16.94516 42922 ft 531 kts 63°
2026-05-06 14:01 55.87907 17.06188 42929 ft 531 kts 63°
2026-05-06 14:01 55.91304 17.17779 42939 ft 532 kts 63°
2026-05-06 14:02 55.94724 17.29507 42926 ft 532 kts 63°
2026-05-06 14:02 55.98132 17.41252 42930 ft 532 kts 63°
2026-05-06 14:03 56.01528 17.53016 42930 ft 533 kts 63°
2026-05-06 14:03 56.04915 17.64808 42934 ft 533 kts 63°
2026-05-06 14:04 56.08289 17.76615 42933 ft 533 kts 63°
2026-05-06 14:04 56.11654 17.88449 42929 ft 533 kts 63°
2026-05-06 14:05 56.14987 18.00233 42927 ft 533 kts 64°
2026-05-06 14:05 56.18339 18.12140 42932 ft 533 kts 64°
2026-05-06 14:06 56.21681 18.24052 42933 ft 533 kts 64°
2026-05-06 14:06 56.24056 18.36532 42936 ft 530 kts 80°
2026-05-06 14:07 56.25418 18.49557 42940 ft 530 kts 81°
2026-05-06 14:07 56.26801 18.62581 42885 ft 528 kts 81°
2026-05-06 14:08 56.27512 18.69044 42610 ft 523 kts 80°
2026-05-06 14:08 56.28223 18.75463 42130 ft 520 kts 81°
2026-05-06 14:08 56.28930 18.81843 41538 ft 519 kts 81°
2026-05-06 14:08 56.29674 18.88199 41073 ft 517 kts 77°
2026-05-06 14:09 56.30669 18.94334 40937 ft 517 kts 72°
2026-05-06 14:09 56.31863 19.00504 40923 ft 525 kts 72°
2026-05-06 14:09 56.34225 19.13021 40925 ft 527 kts 73°
2026-05-06 14:10 56.36566 19.25532 40922 ft 527 kts 73°
2026-05-06 14:10 56.38904 19.38066 40918 ft 526 kts 73°
2026-05-06 14:11 56.41214 19.50526 40922 ft 527 kts 73°
2026-05-06 14:11 56.43527 19.63079 40922 ft 526 kts 73°
2026-05-06 14:12 56.45829 19.75662 40923 ft 526 kts 73°
2026-05-06 14:12 56.48117 19.88252 40921 ft 526 kts 73°
2026-05-06 14:13 56.50387 20.00842 40921 ft 526 kts 73°
2026-05-06 14:13 56.52623 20.13371 40919 ft 526 kts 74°
2026-05-06 14:14 56.54865 20.25997 40933 ft 526 kts 73°
2026-05-06 14:14 56.57104 20.38652 40917 ft 527 kts 74°
2026-05-06 14:15 56.59331 20.51343 40921 ft 528 kts 74°
2026-05-06 14:15 56.61547 20.64062 40920 ft 528 kts 74°
2026-05-06 14:16 56.63750 20.76799 40900 ft 528 kts 74°
2026-05-06 14:16 56.65927 20.89476 40924 ft 528 kts 74°
2026-05-06 14:17 56.68100 21.02220 40921 ft 528 kts 74°
2026-05-06 14:17 56.70263 21.14995 40920 ft 528 kts 75°
2026-05-06 14:18 56.72407 21.27751 40924 ft 529 kts 75°
2026-05-06 14:18 56.74548 21.40579 40930 ft 529 kts 75°
2026-05-06 14:19 56.76671 21.53393 40951 ft 528 kts 75°
2026-05-06 14:19 56.78781 21.66227 40945 ft 528 kts 75°
2026-05-06 14:20 56.80878 21.79072 40938 ft 528 kts 75°
2026-05-06 14:20 56.82951 21.91867 40932 ft 528 kts 75°
2026-05-06 14:21 56.85023 22.04750 40937 ft 528 kts 75°
2026-05-06 14:21 56.87200 22.17576 40942 ft 528 kts 69°
2026-05-06 14:22 56.88807 22.23531 40939 ft 529 kts 58°
2026-05-06 14:22 56.90989 22.29049 40944 ft 529 kts 47°
2026-05-06 14:22 56.96529 22.37632 40942 ft 525 kts 28°
2026-05-06 14:23 57.03182 22.42807 40939 ft 518 kts 10°
2026-05-06 14:23 57.10217 22.45485 40955 ft 516 kts
2026-05-06 14:24 57.17268 22.48167 40952 ft 517 kts
2026-05-06 14:24 57.24323 22.50883 40964 ft 518 kts
2026-05-06 14:25 57.31344 22.53599 40969 ft 519 kts
2026-05-06 14:25 57.38418 22.56344 40975 ft 520 kts
2026-05-06 14:26 57.45504 22.59105 40983 ft 520 kts
2026-05-06 14:26 57.52581 22.61874 40984 ft 520 kts
2026-05-06 14:27 57.59665 22.64656 40988 ft 520 kts
2026-05-06 14:27 57.66748 22.67449 40984 ft 519 kts
2026-05-06 14:28 57.73817 22.70247 40983 ft 519 kts
2026-05-06 14:28 57.80844 22.73040 40983 ft 519 kts
2026-05-06 14:29 57.87906 22.75858 40984 ft 519 kts
2026-05-06 14:29 57.94967 22.78687 40988 ft 519 kts
2026-05-06 14:30 58.02025 22.81526 40983 ft 518 kts
2026-05-06 14:30 58.09089 22.84379 40986 ft 518 kts
2026-05-06 14:31 58.16147 22.87241 40997 ft 518 kts
2026-05-06 14:31 58.23195 22.90111 40989 ft 518 kts
2026-05-06 14:32 58.30248 22.92996 40686 ft 517 kts
2026-05-06 14:32 58.33774 22.94444 40042 ft 518 kts
2026-05-06 14:32 58.37274 22.95881 39324 ft 522 kts
2026-05-06 14:33 58.40816 22.97340 38855 ft 519 kts
2026-05-06 14:33 58.44320 22.98790 38609 ft 510 kts
2026-05-06 14:33 58.47769 23.00220 38331 ft 506 kts
2026-05-06 14:33 58.51220 23.01646 38044 ft 510 kts
2026-05-06 14:34 58.54705 23.03085 37764 ft 514 kts
2026-05-06 14:34 58.58211 23.04539 37495 ft 516 kts
2026-05-06 14:34 58.61720 23.06002 37216 ft 517 kts
2026-05-06 14:34 58.65238 23.07472 36941 ft 517 kts
2026-05-06 14:35 58.68760 23.08948 36717 ft 518 kts
2026-05-06 14:35 58.72299 23.10432 36452 ft 519 kts
2026-05-06 14:35 58.75831 23.11917 36202 ft 521 kts
2026-05-06 14:35 58.79374 23.13409 35950 ft 522 kts
2026-05-06 14:36 58.82887 23.14892 35702 ft 523 kts
2026-05-06 14:36 58.86443 23.16395 35447 ft 524 kts
2026-05-06 14:36 58.90020 23.17911 35205 ft 526 kts
2026-05-06 14:36 58.93599 23.19430 34961 ft 527 kts
2026-05-06 14:37 58.97188 23.20959 34751 ft 529 kts
2026-05-06 14:37 59.00787 23.22494 34505 ft 530 kts
2026-05-06 14:37 59.04385 23.24034 34013 ft 530 kts
2026-05-06 14:37 59.07985 23.25578 33328 ft 528 kts
2026-05-06 14:38 59.11560 23.27118 32708 ft 523 kts
2026-05-06 14:38 59.15103 23.28646 32087 ft 519 kts
2026-05-06 14:38 59.18620 23.30164 31439 ft 515 kts
2026-05-06 14:38 59.22108 23.31671 30791 ft 512 kts
2026-05-06 14:39 59.25581 23.33177 30172 ft 510 kts
2026-05-06 14:39 59.29052 23.34679 29330 ft 509 kts
2026-05-06 14:39 59.32439 23.36150 28807 ft 501 kts
2026-05-06 14:39 59.35826 23.37629 28178 ft 496 kts
2026-05-06 14:40 59.39180 23.39094 27551 ft 491 kts
2026-05-06 14:40 59.42504 23.40547 26918 ft 486 kts
2026-05-06 14:40 59.44685 23.41502 26496 ft 483 kts
2026-05-06 14:40 59.47959 23.42938 25883 ft 479 kts
2026-05-06 14:41 59.51197 23.44362 25258 ft 475 kts
2026-05-06 14:41 59.54413 23.45778 24619 ft 471 kts
2026-05-06 14:41 59.57600 23.47184 24006 ft 467 kts
2026-05-06 14:41 59.60763 23.48583 23330 ft 464 kts
2026-05-06 14:42 59.63904 23.49975 22705 ft 458 kts
2026-05-06 14:42 59.66939 23.51875 22199 ft 460 kts 18°
2026-05-06 14:42 59.69672 23.55101 21926 ft 457 kts 33°
2026-05-06 14:42 59.71925 23.59491 21659 ft 454 kts 49°
2026-05-06 14:43 59.73833 23.64448 21407 ft 459 kts 50°
2026-05-06 14:43 59.75768 23.69457 21144 ft 451 kts 50°
2026-05-06 14:43 59.77674 23.74340 20874 ft 445 kts 49°
2026-05-06 14:43 59.79584 23.79205 20262 ft 445 kts 49°
2026-05-06 14:44 59.81481 23.84031 19711 ft 442 kts 49°
2026-05-06 14:44 59.83367 23.88839 19167 ft 438 kts 49°
2026-05-06 14:44 59.85216 23.93562 18604 ft 435 kts 49°
2026-05-06 14:45 59.88901 24.03007 17429 ft 427 kts 49°
2026-05-06 14:45 59.90708 24.07650 16857 ft 421 kts 49°
2026-05-06 14:45 59.92489 24.12240 16312 ft 416 kts 49°
2026-05-06 14:45 59.94247 24.16777 15740 ft 411 kts 49°
2026-05-06 14:46 59.95983 24.21266 15184 ft 406 kts 49°
2026-05-06 14:46 59.97701 24.25717 14630 ft 402 kts 49°
2026-05-06 14:46 59.99397 24.30126 14085 ft 398 kts 48°
2026-05-06 14:46 60.01087 24.34487 13494 ft 393 kts 49°
2026-05-06 14:47 60.02723 24.38747 12929 ft 387 kts 49°
2026-05-06 14:47 60.04348 24.42994 12392 ft 381 kts 50°
2026-05-06 14:47 60.05942 24.47179 11870 ft 375 kts 50°
2026-05-06 14:47 60.07510 24.51294 11343 ft 369 kts 50°
2026-05-06 14:48 60.09056 24.55357 10836 ft 362 kts 50°
2026-05-06 14:48 60.10562 24.59320 10554 ft 350 kts 50°
2026-05-06 14:48 60.12004 24.63125 10390 ft 335 kts 50°
2026-05-06 14:48 60.13384 24.66770 10278 ft 321 kts 50°
2026-05-06 14:49 60.14709 24.70275 10159 ft 309 kts 50°
2026-05-06 14:49 60.15985 24.73653 10005 ft 298 kts 50°
2026-05-06 14:49 60.17241 24.76976 9560 ft 298 kts 50°
2026-05-06 14:49 60.18488 24.80277 9186 ft 295 kts 50°
2026-05-06 14:50 60.19725 24.83561 8774 ft 293 kts 51°
2026-05-06 14:50 60.20954 24.86828 8461 ft 289 kts 51°
2026-05-06 14:50 60.22139 24.89990 8185 ft 283 kts 50°
2026-05-06 14:50 60.23318 24.93131 7905 ft 278 kts 50°
2026-05-06 14:51 60.24475 24.96215 7615 ft 274 kts 50°
2026-05-06 14:51 60.25609 24.99251 7328 ft 269 kts 50°
2026-05-06 14:51 60.26725 25.02250 7036 ft 266 kts 50°
2026-05-06 14:51 60.27827 25.05202 6740 ft 262 kts 50°
2026-05-06 14:52 60.28914 25.08121 6479 ft 258 kts 49°
2026-05-06 14:52 60.29985 25.11005 6198 ft 255 kts 50°
2026-05-06 14:52 60.31044 25.13863 5912 ft 252 kts 50°
2026-05-06 14:52 60.32074 25.16635 5634 ft 249 kts 51°
2026-05-06 14:53 60.33104 25.19409 5380 ft 246 kts 50°
2026-05-06 14:53 60.34128 25.22173 5102 ft 243 kts 49°
2026-05-06 14:53 60.35143 25.24909 4818 ft 243 kts 49°
2026-05-06 14:53 60.36157 25.27648 4539 ft 244 kts 49°
2026-05-06 14:54 60.37174 25.30414 4366 ft 242 kts 49°
2026-05-06 14:54 60.38158 25.33099 4252 ft 232 kts 49°
2026-05-06 14:54 60.39089 25.35641 4182 ft 219 kts 50°
2026-05-06 14:54 60.39999 25.37985 4021 ft 213 kts 40°
2026-05-06 14:55 60.41265 25.39228 3779 ft 192 kts
2026-05-06 14:55 60.42541 25.38927 3235 ft 186 kts 334°
2026-05-06 14:55 60.43524 25.37307 3027 ft 184 kts 304°
2026-05-06 14:55 60.44136 25.34959 2998 ft 194 kts 296°
2026-05-06 14:56 60.44769 25.32541 2995 ft 199 kts 298°
2026-05-06 14:56 60.45420 25.30158 2981 ft 188 kts 298°
2026-05-06 14:56 60.45799 25.27705 3000 ft 187 kts 269°
2026-05-06 14:56 60.45364 25.25234 2993 ft 192 kts 233°
2026-05-06 14:57 60.44487 25.23221 2982 ft 192 kts 230°
2026-05-06 14:57 60.43595 25.21220 2995 ft 192 kts 231°
2026-05-06 14:57 60.42691 25.19205 2996 ft 192 kts 229°
2026-05-06 14:57 60.41806 25.17243 2792 ft 184 kts 230°
2026-05-06 14:58 60.40974 25.15401 2572 ft 166 kts 229°
2026-05-06 14:58 60.40244 25.13783 2341 ft 148 kts 230°
2026-05-06 14:58 60.39599 25.12367 2142 ft 130 kts 228°
2026-05-06 14:58 60.38986 25.11011 1957 ft 130 kts 231°
2026-05-06 14:59 60.38387 25.09653 1787 ft 131 kts 229°
2026-05-06 14:59 60.37763 25.08327 1588 ft 130 kts 226°
2026-05-06 14:59 60.37151 25.07028 1400 ft 127 kts 229°
2026-05-06 14:59 60.36568 25.05746 1220 ft 122 kts 230°
2026-05-06 15:00 60.35986 25.04462 1026 ft 129 kts 229°
2026-05-06 15:00 60.35398 25.03119 909 ft 128 kts 230°
2026-05-06 15:00 60.34808 25.01777 693 ft 126 kts 227°
2026-05-06 15:00 60.34207 25.00442 545 ft 130 kts 229°
2026-05-06 15:01 60.33607 24.99103 367 ft 126 kts 227°
2026-05-06 15:01 60.33022 24.97814 193 ft 125 kts 227°
2026-05-06 15:01 60.32520 24.96703 179 ft 86 kts 227°
2026-05-06 15:01 60.32262 24.96137 183 ft 35 kts 228°
2026-05-06 15:02 60.32079 24.95769 179 ft 35 kts 213°
2026-05-06 15:02 60.31934 24.95625 177 ft 12 kts 194°
2026-05-06 15:02 60.31882 24.95601 175 ft 0 kts 192°
2026-05-06 15:02 60.31852 24.95596 175 ft 8 kts 173°
2026-05-06 15:03 60.31848 24.95597 175 ft 0 kts 170°
2026-05-06 15:03 60.31845 24.95598 175 ft 3 kts 168°
2026-05-06 15:04 60.31800 24.95622 175 ft 7 kts 191°
2026-05-06 15:04 60.31747 24.95566 175 ft 11 kts 206°
2026-05-06 15:04 60.31679 24.95580 172 ft 12 kts 139°
2026-05-06 15:04 60.31655 24.95725 172 ft 13 kts 70°
2026-05-06 15:05 60.31723 24.95893 172 ft 19 kts 47°
2026-05-06 15:05 60.31763 24.95981 172 ft 1 kts 59°
2026-05-06 15:05 60.31760 24.96056 172 ft 7 kts 121°
2026-05-06 15:05 60.31737 24.96104 172 ft 2 kts 148°
2026-05-06 15:06 60.31734 24.96108 172 ft 0 kts 149°
2026-05-06 15:10 60.31734 24.96107 173 ft 0 kts 148°